Regional Weather Roundup
Issued by NWS

Home | Current Version | Previous Version | Text Only | Print | Product List | Glossary Off
Versions: 1 2 3 4 5 6 7 8 9 10 11 12 13 14 15 16 17 18 19 20 21 22 23 24 25 26 27 28 29 30 31 32 33 34 35 36 37 38 39 40 41 42 43 44 45 46 47 48 49 50

000
ASUS44 KMEG 272310
RWRTN
TENNESSEE HOURLY STATE WEATHER ROUNDUP
NATIONAL WEATHER SERVICE MEMPHIS TN
500 PM CST FRI FEB 27 2015

TNZ002-004-019-021-049-052-054-088>092-280000-
WEST TENNESSEE

CITY           SKY/WX    TMP DP  RH WIND       PRES   REMARKS
MEMPHIS INTL   CLOUDY    32  14  47 N10       30.54R WCI  24
NWS MEMPHIS      N/A     31 N/A N/A MISG        N/A
JACKSON        MOCLDY    32  12  43 N13       30.54R WCI  22
DYERSBURG      MOCLDY    27   5  39 N14       30.61R WCI  15
UNION CITY     MOCLDY    25  12  58 N10       30.58R WCI  15
PARIS          CLEAR     25   9  50 NE12      30.55R WCI  14
LEXINGTON      CLEAR     30   7  37 N10       30.50R WCI  21
SAVANNAH       CLEAR     36   7  30 N5        30.48S WCI  32
$$

TNZ008-025-027-028-033-062-065-066-280000-
NORTH MIDDLE TENNESSEE

CITY           SKY/WX    TMP DP  RH WIND       PRES   REMARKS
NASHVILLE      PTCLDY    29  10  45 N9        30.53S WCI  20
CLARKSVILLE    CLEAR     26  11  52 N6        30.56S WCI  19
SMYRNA         CLEAR     31   8  38 NE13      30.54S WCI  21
COOKEVILLE     CLEAR     28  10  47 NE6       30.48R WCI  22
CROSSVILLE     CLEAR     29   8  41 N7        30.43R WCI  22
$$

TNZ061-075-076-078-094-096-097-280000-
SOUTH MIDDLE TENNESSEE

CITY           SKY/WX    TMP DP  RH WIND       PRES   REMARKS
FAYETTEVILLE   CLEAR     32  12  43 N7          N/A  WCI  26
TULLAHOMA      CLEAR     32  10  40 NE9       30.46R WCI  24
WINCHESTER     CLEAR     32  12  43 N8        30.46R WCI  25
MCMINNVILLE    CLEAR     30  10  43 N8        30.47R WCI  23
COLUMBIA         N/A     32  10  40 NE9       30.48R WCI  24
SHELBYVILLE    CLEAR     32  12  43 NE9       30.49S WCI  24
$$

TNZ017-018-042-046-047-280000-
NORTHEAST TENNESSEE

CITY           SKY/WX    TMP DP  RH WIND       PRES   REMARKS
TRI CITIES     PTCLDY    30  19  63 CALM      30.44S
ELIZABETHTON   CLEAR     28  16  59 SW3       30.43S
$$

TNZ012-013-036-069-073-074-280000-
CENTRAL EAST TENNESSEE

CITY           SKY/WX    TMP DP  RH WIND       PRES   REMARKS
KNOXVILLE      PTCLDY    33  15  47 N7        30.46S WCI  27
OAK RIDGE      CLEAR     33  10  38 NE7       30.49R WCI  27
GATLINBURG     CLEAR     30  16  55 NE6       30.46R WCI  24
MORRISTOWN     CLEAR     30  12  47 NW5       30.45S WCI  25
$$

TNZ083-085-099-280000-
SOUTHEAST TENNESSEE

CITY           SKY/WX    TMP DP  RH WIND       PRES   REMARKS
CHATTANOOGA    PTCLDY    38  17  42 NE8       30.45S WCI  32
$$

SKY/WX REPORTED AS FAIR MEANS FEW OR NO CLOUDS BELOW
12 THOUSAND FEET.



USA.gov is the U.S. government's official web portal to all federal, state and local government web resources and services.